Tracking 29892 objects as of 21-Nov-2024
HD Live streaming from Space Station
objects crossing your sky now

COSMOS 1275 DEB

Track COSMOS 1275 DEB now!
10-day predictions


NORAD ID: 42109
Int'l Code: 1981-053PV
Perigee: 957.2 km
Apogee: 997.7 km
Inclination: 82.9 °
Period: 104.5 minutes
Semi major axis: 7348 km
RCS: Unknown
Launch date: June 4, 1981
Source: Commonwealth of Independent States (former USSR) (CIS)
Launch site: PLESETSK MISSILE AND SPACE COMPLEX (PKMTR)

Note: This is SATELLITE DEBRIS
Your satellite tracking list
Your tracking list is empty




NASA's NSSDC Master Catalog

Two Line Element Set (TLE):
1 42109U 81053PV  24324.55422012  .00000184  00000-0  16758-3 0  9992
2 42109  82.9493 246.3128 0027575 263.0656 272.2165 13.78186899552943
Source of the keplerian elements: AFSPC